TimeCST,TemperatureF,Dew PointF,Humidity,Sea Level PressureIn,VisibilityMPH,Wind Direction,Wind SpeedMPH,Gust SpeedMPH,PrecipitationIn,Events,Conditions,WindDirDegrees,DateUTC
12:14 AM,-7.6,-11.2,84,30.19,10.0,SE,3.5,-,N/A,,Clear,140,2013-02-16 06:14:00
12:34 AM,-9.4,-13.0,84,30.18,7.0,SE,4.6,-,N/A,,Clear,140,2013-02-16 06:34:00
12:53 AM,-7.6,-11.2,84,30.18,10.0,SE,4.6,-,N/A,,Clear,140,2013-02-16 06:53:00
1:14 AM,-5.8,-9.4,84,30.17,10.0,SE,4.6,-,N/A,,Clear,140,2013-02-16 07:14:00
1:34 AM,-5.8,-9.4,84,30.17,10.0,SSE,5.8,-,N/A,,Clear,150,2013-02-16 07:34:00
1:53 AM,-4.0,-7.6,85,30.16,7.0,SE,8.1,-,N/A,Snow,Light Snow,140,2013-02-16 07:53:00
2:14 AM,-4.0,-7.6,85,30.14,10.0,SE,6.9,-,N/A,,Clear,140,2013-02-16 08:14:00
2:34 AM,-5.8,-9.4,84,30.14,10.0,SE,6.9,-,N/A,Snow,Light Snow,140,2013-02-16 08:34:00
2:53 AM,-5.8,-7.6,92,30.13,10.0,SE,6.9,-,N/A,Snow,Light Snow,140,2013-02-16 08:53:00
3:14 AM,-5.8,-7.6,92,30.12,10.0,SE,8.1,-,N/A,,Clear,140,2013-02-16 09:14:00
3:33 AM,-4.0,-7.6,85,30.12,10.0,SE,6.9,-,N/A,,Clear,140,2013-02-16 09:33:00
3:54 AM,-4.0,-7.6,85,30.11,10.0,SE,6.9,-,N/A,Snow,Light Snow,140,2013-02-16 09:54:00
4:14 AM,-2.2,-7.6,78,30.11,10.0,SE,5.8,-,N/A,Snow,Light Snow,140,2013-02-16 10:14:00
4:33 AM,-5.8,-9.4,84,30.11,10.0,SE,5.8,-,N/A,Snow,Light Snow,140,2013-02-16 10:33:00
4:54 AM,-9.4,-13.0,84,30.11,7.0,SSE,4.6,-,N/A,Snow,Light Snow,160,2013-02-16 10:54:00
5:13 AM,-7.6,-11.2,84,30.10,10.0,SSE,5.8,-,N/A,Snow,Light Snow,150,2013-02-16 11:13:00
5:34 AM,-9.4,-14.8,77,30.10,10.0,South,4.6,-,N/A,Snow,Light Snow,170,2013-02-16 11:34:00
5:54 AM,-7.6,-11.2,84,30.10,10.0,SSE,6.9,-,N/A,Snow,Light Snow,150,2013-02-16 11:54:00
6:13 AM,-7.6,-11.2,84,30.10,1.2,SSE,6.9,-,N/A,,Overcast,150,2013-02-16 12:13:00
6:34 AM,-7.6,-11.2,84,30.10,3.0,SSE,5.8,-,N/A,,Overcast,150,2013-02-16 12:34:00
6:54 AM,-5.8,-9.4,84,30.09,7.0,SSE,5.8,-,N/A,,Overcast,150,2013-02-16 12:54:00
7:13 AM,-5.8,-9.4,84,30.09,10.0,SSE,4.6,-,N/A,,Overcast,150,2013-02-16 13:13:00
7:34 AM,-4.0,-7.6,85,30.08,0.8,SSE,10.4,-,N/A,,Overcast,160,2013-02-16 13:34:00
7:53 AM,-4.0,-7.6,85,30.08,0.8,SSE,9.2,-,N/A,,Overcast,150,2013-02-16 13:53:00
8:14 AM,-5.8,-9.4,84,30.07,7.0,SSE,6.9,-,N/A,,Overcast,150,2013-02-16 14:14:00
8:34 AM,-4.0,-7.6,85,30.08,10.0,SSE,6.9,-,N/A,,Overcast,150,2013-02-16 14:34:00
8:53 AM,-4.0,-7.6,85,30.07,10.0,SSE,6.9,-,N/A,,Overcast,160,2013-02-16 14:53:00
9:14 AM,-4.0,-7.6,85,30.08,10.0,SSE,5.8,-,N/A,,Overcast,160,2013-02-16 15:14:00
9:34 AM,-2.2,-7.6,78,30.08,10.0,SSE,5.8,-,N/A,,Overcast,160,2013-02-16 15:34:00
9:53 AM,-2.2,-5.8,85,30.08,10.0,SSE,5.8,-,N/A,,Overcast,160,2013-02-16 15:53:00
10:14 AM,-0.4,-5.8,78,30.08,5.0,SSE,8.1,-,N/A,,Overcast,160,2013-02-16 16:14:00
10:34 AM,-0.4,-4.0,85,30.08,7.0,SSE,8.1,-,N/A,,Overcast,160,2013-02-16 16:34:00
10:53 AM,1.4,-2.2,85,30.07,1.0,SSE,8.1,-,N/A,,Overcast,160,2013-02-16 16:53:00
11:14 AM,1.4,-0.4,92,30.07,1.8,SSE,8.1,-,N/A,,Overcast,160,2013-02-16 17:14:00
11:34 AM,3.2,-0.4,85,30.07,1.5,South,8.1,-,N/A,,Overcast,170,2013-02-16 17:34:00
11:53 AM,3.2,1.4,92,30.07,2.0,SSE,9.2,-,N/A,Snow,Light Snow,160,2013-02-16 17:53:00
12:14 PM,5.0,1.4,85,30.06,2.5,SSE,9.2,-,N/A,Snow,Light Snow,160,2013-02-16 18:14:00
12:34 PM,6.8,3.2,85,30.06,2.5,SSE,8.1,-,N/A,Snow,Light Snow,160,2013-02-16 18:34:00
12:53 PM,6.8,3.2,85,30.05,1.5,SSE,10.4,-,N/A,Snow,Snow,160,2013-02-16 18:53:00
1:14 PM,6.8,5.0,92,30.04,2.0,SSE,11.5,-,N/A,Snow,Light Snow,160,2013-02-16 19:14:00
1:34 PM,8.6,6.8,92,30.04,4.0,SSE,12.7,-,N/A,Snow,Light Snow,150,2013-02-16 19:34:00
1:53 PM,8.6,6.8,92,30.04,10.0,SSE,12.7,-,N/A,Snow,Light Snow,160,2013-02-16 19:53:00
2:14 PM,10.4,8.6,92,30.02,10.0,SSE,15.0,-,N/A,,Clear,150,2013-02-16 20:14:00
2:33 PM,10.4,8.6,92,30.02,10.0,SSE,16.1,-,N/A,,Clear,150,2013-02-16 20:33:00
2:54 PM,12.2,10.4,92,30.02,10.0,SSE,13.8,-,N/A,,Scattered Clouds,160,2013-02-16 20:54:00
3:14 PM,12.2,10.4,92,30.02,10.0,SSE,15.0,-,N/A,,Clear,160,2013-02-16 21:14:00
3:33 PM,12.2,10.4,92,30.02,10.0,SSE,15.0,-,N/A,,Clear,160,2013-02-16 21:33:00
3:54 PM,12.2,10.4,92,30.02,10.0,SSE,15.0,-,N/A,,Mostly Cloudy,160,2013-02-16 21:54:00
4:14 PM,12.2,10.4,92,30.01,10.0,SSE,12.7,-,N/A,,Scattered Clouds,160,2013-02-16 22:14:00
4:33 PM,12.2,10.4,92,30.01,10.0,SSE,13.8,-,N/A,,Scattered Clouds,160,2013-02-16 22:33:00
4:54 PM,12.2,10.4,92,30.00,10.0,SSE,16.1,-,N/A,,Mostly Cloudy,160,2013-02-16 22:54:00
5:14 PM,12.2,10.4,92,30.00,10.0,SSE,13.8,-,N/A,,Overcast,160,2013-02-16 23:14:00
5:33 PM,12.2,10.4,92,29.99,10.0,SSE,15.0,-,N/A,,Mostly Cloudy,160,2013-02-16 23:33:00
5:54 PM,10.4,8.6,92,30.00,10.0,SSE,13.8,-,N/A,,Scattered Clouds,160,2013-02-16 23:54:00
6:13 PM,10.4,8.6,92,30.00,10.0,SSE,13.8,-,N/A,,Scattered Clouds,160,2013-02-17 00:13:00
6:34 PM,12.2,10.4,92,29.99,10.0,SSE,11.5,-,N/A,,Overcast,160,2013-02-17 00:34:00
6:54 PM,12.2,10.4,92,29.99,10.0,South,12.7,-,N/A,,Overcast,170,2013-02-17 00:54:00
7:13 PM,14.0,12.2,93,29.98,10.0,SSE,13.8,-,N/A,,Overcast,160,2013-02-17 01:13:00
7:34 PM,14.0,12.2,93,29.97,10.0,SSE,16.1,-,N/A,,Overcast,160,2013-02-17 01:34:00
7:54 PM,15.8,12.2,86,29.96,10.0,South,15.0,-,N/A,,Overcast,170,2013-02-17 01:54:00
8:13 PM,15.8,12.2,86,29.95,10.0,South,19.6,-,N/A,,Overcast,170,2013-02-17 02:13:00
8:34 PM,15.8,12.2,86,29.95,10.0,South,19.6,-,N/A,,Overcast,170,2013-02-17 02:34:00
8:54 PM,15.8,12.2,86,29.93,7.0,South,20.7,-,N/A,,Overcast,170,2013-02-17 02:54:00
9:13 PM,15.8,12.2,86,29.92,7.0,South,20.7,-,N/A,,Overcast,170,2013-02-17 03:13:00
9:34 PM,15.8,14.0,93,29.91,5.0,South,21.9,-,N/A,Snow,Light Snow,180,2013-02-17 03:34:00
9:54 PM,15.8,14.0,93,29.92,7.0,South,20.7,-,N/A,Snow,Light Snow,180,2013-02-17 03:54:00
10:13 PM,15.8,14.0,93,29.91,4.0,South,20.7,-,N/A,Snow,Light Snow,180,2013-02-17 04:13:00
10:34 PM,17.6,15.8,93,29.90,3.0,South,20.7,-,N/A,Snow,Light Snow,170,2013-02-17 04:34:00
10:54 PM,17.6,15.8,93,29.89,2.5,South,24.2,-,N/A,Snow,Light Snow,170,2013-02-17 04:54:00
11:14 PM,17.6,15.8,93,29.88,3.0,South,21.9,-,N/A,,Overcast,180,2013-02-17 05:14:00
11:34 PM,17.6,15.8,93,29.87,2.5,South,24.2,-,N/A,,Overcast,170,2013-02-17 05:34:00
11:54 PM,17.6,15.8,93,29.87,2.0,South,25.3,-,N/A,,Overcast,180,2013-02-17 05:54:00